Location: Unspecified
(0.0000°N, 0.0000°E)
Time: 06:02:07
(UTC+00:00)

CUTE 1.7 + AOD 2 - Pass Details

Date: 16 December 2017
Orbit: 595 x 613 km, 97.6° (Epoch: 17 January)

Event Time Altitude Azimuth Distance (km) Brightness Sun altitude
Rises 19:36:18 0° 203° (SSW) 2,843 ? -22.9°
Reaches altitude 10° 19:39:36 10° 232° (SW) 1,942 ? -23.7°
Maximum altitude 19:41:29 13° 258° (WSW) 1,765 ? -24.1°
Drops below altitude 10° 19:43:22 10° 285° (WNW) 1,943 ? -24.5°
Sets 19:46:42 0° 314° (NW) 2,847 ? -25.3°
